TEVEL2-1

Last updated on Tue Aug 25 2026 00:03:14 GMT+0000 (Coordinated Universal Time)

1 63217U 25052H 26236.49878451 .00016826 00000+0 48221-3 0 9990 2 63217 97.3779 132.5298 0001207 182.9959 177.1278 15.35975135 80573
UTC large
Height (km)
Speed (km/s)
/
Latitude / Longitude
Inclination (degrees)
Orbital Period (minutes)
Azimuth
Elevation
Range (km)
Doppler Factor

Next 0 passes for location: London (51.5072 / 0.1276)

No passes found over London.
TEVEL2-1